Retour au catalogue

STRAND 1

ActifScienceSSO
NORAD 39090·PAYLOAD·🇬🇧 United Kingdom

Lancé Feb 25, 2013 depuis Satish Dhawan Space Centre

Loading…

Prochains Passages (prochaines 24 heures)

TLE

FraisSource: Space-Track

Époque: Sep 14, 2026, 10:46 UTC

1 39090U 13009E   26257.44890170  .00000177  00000-0  73725-4 0  9992
2 39090  98.3970  75.5185 0008004 331.4695  28.6053 14.37206466709888

Suivez STRAND 1 en temps réel avec AllMySat

Download on the App Store